Location: Wagner
(55.3500°N, 114.9833°W)
Time: 07:42:50
(UTC+00:00)

ISS - Visible Passes

Search period start: 06 July 2022 00:00
Search period end: 16 July 2022 00:00
Orbit: 414 x 420 km, 51.6° (Epoch: 06 July)

Date Brightness Start Highest point End Pass type
(mag) Time Alt. Az. Time Alt. Az. Time Alt. Az.
06 Jul -2.1 08:18:58 17° SSE 08:19:32 18° SSE 08:21:55 10° ESE visible
06 Jul -3.2 09:52:34 10° WSW 09:55:44 39° S 09:58:55 10° E visible
07 Jul -1.6 07:32:07 13° SE 07:32:07 13° SE 07:33:15 10° ESE visible
07 Jul -3.0 09:04:58 13° SW 09:07:36 34° SSE 09:10:42 10° E visible
08 Jul -2.8 08:17:59 20° SSW 08:19:28 28° SSE 08:22:25 10° E visible
08 Jul -3.4 09:52:37 10° WSW 09:55:50 44° S 09:59:04 10° ESE visible
09 Jul -2.5 07:30:51 22° SSE 07:31:22 23° SSE 07:34:04 10° E visible
09 Jul -3.4 09:04:26 10° WSW 09:07:39 42° S 09:10:52 10° ESE visible
10 Jul -2.2 06:43:26 17° SE 06:43:26 17° SE 06:45:35 10° ESE visible
10 Jul -3.3 08:16:19 10° WSW 08:19:28 38° SSE 08:22:38 10° E visible
10 Jul -3.3 09:52:41 10° W 09:55:53 41° S 09:59:05 10° ESE visible
11 Jul -1.9 05:55:14 13° SE 05:55:14 13° SE 05:56:50 10° ESE visible
11 Jul -3.1 07:28:13 10° SW 07:31:16 33° SSE 07:34:21 10° E visible
11 Jul -3.4 09:04:28 10° WSW 09:07:41 44° S 09:10:55 10° ESE visible
12 Jul -2.8 06:40:12 10° SW 06:43:06 27° SSE 06:46:01 10° E visible
12 Jul -3.5 08:16:15 10° WSW 08:19:27 44° S 08:22:41 10° ESE visible
12 Jul -3.0 09:52:49 10° W 09:55:51 31° SSW 09:58:52 10° SE visible
13 Jul -2.5 05:52:18 10° SSW 05:54:57 22° SSE 05:57:37 10° ESE visible
13 Jul -3.4 07:28:01 10° WSW 07:31:14 42° S 07:34:26 10° ESE visible
13 Jul -3.2 09:04:31 10° W 09:07:39 36° SSW 09:10:47 10° SE visible
14 Jul -2.2 05:04:35 10° S 05:06:49 17° SSE 05:09:04 10° ESE visible
14 Jul -3.3 06:39:51 10° WSW 06:42:59 38° SSE 06:46:09 10° E visible
14 Jul -3.4 08:16:14 10° W 08:19:25 41° S 08:22:36 10° ESE visible
14 Jul -2.4 09:53:06 10° WSW 09:55:39 20° SSW 09:58:14 10° SSE visible
15 Jul -3.1 05:51:43 10° SW 05:54:46 32° SSE 05:57:49 10° E visible
15 Jul -3.5 07:27:56 10° WSW 07:31:10 44° S 07:34:23 10° ESE visible
15 Jul -2.8 09:04:38 10° W 09:07:30 26° SSW 09:10:21 10° SE visible
